Regional Weather Roundup
Issued by NWS Northern Indiana

Home | Current Version | Previous Version | Graphics & Text | Print | Product List | Glossary On
Versions: 1 2 3 4 5 6 7 8 9 10 11 12 13 14 15 16 17 18 19 20 21 22 23 24 25 26 27 28 29 30 31 32 33 34 35 36 37 38 39 40 41 42 43 44 45 46 47 48 49 50
000
ASUS43 KIWX 012300
RWRIWX

KIWX WEATHER ROUNDUP
NATIONAL WEATHER SERVICE NORTHERN INDIANA
700 PM EDT SAT AUG 01 2015

NOTE: "FAIR" INDICATES FEW OR NO CLOUDS BELOW 12,000 FEET WITH NO
SIGNIFICANT WEATHER AND/OR OBSTRUCTIONS TO VISIBILITY.

* THESE STATIONS ARE NOT UNDER NWS QUALITY CONTROL. THEY ALSO MAY NOT
  REPORT WEATHER SUCH AS PRECIPITATION OR FOG.

INZ001>027-020000-
NORTHERN INDIANA

CITY           SKY/WX    TMP DP  RH WIND       PRES   REMARKS
GARY*          MOSUNNY   86  57  37 W17G31    29.92S
KNOX*          MOSUNNY   79  57  47 W6        29.92F
SOUTH BEND     MOSUNNY   82  57  42 SW5       29.92F
GOSHEN         PTSUNNY   80  57  45 W7        29.93F
MONTICELLO*    MOSUNNY   82  61  48 SW12G17   29.94F
WARSAW*        MOSUNNY   81  55  41 W5        29.94F
ANGOLA*        CLOUDY    79  55  44 W6        29.94S
FORT WAYNE     PTSUNNY   81  55  40 W9        29.95F

$$
INZ028>050-020000-
CENTRAL INDIANA

CITY           SKY/WX    TMP DP  RH WIND       PRES   REMARKS
LAFAYETTE      MOSUNNY   80  62  54 SW6       29.96F
KOKOMO*        MOSUNNY   82  57  42 W12       29.96F
MUNCIE*        SUNNY     78  56  46 W7        29.96F
INDIANAPOLIS   MOSUNNY   80  56  43 SW9       29.98S

$$
MIZ043>046-050>051-056>058-064>065-071>073-077>080-020000-
SOUTHWEST LOWER MICHIGAN

CITY           SKY/WX    TMP DP  RH WIND       PRES   REMARKS
BATTLE CREEK   SUNNY     80  55  42 W13       29.92F
BENTON HARBOR  MOSUNNY   80  56  43 W6        29.90F
COLDWATER*     PTSUNNY   74  52  45 W8        29.93S
HILLSDALE*     SUNNY     78  51  38 W14       29.93S
HOLLAND        MOSUNNY   78  55  44 SW8       29.91F
GRAND RAPIDS   MOSUNNY   80  49  33 W16       29.90F
KALAMAZOO      CLOUDY    79  54  41 W10       29.92F
STURGIS*       PTSUNNY   75  57  53 CALM      29.93F
THREE RIVERS*  CLOUDY    78  55  44 W6        29.93F

$$
OHZ001>008-015>018-024>025-020000-
NORTHWEST OHIO

CITY           SKY/WX    TMP DP  RH WIND       PRES   REMARKS
DEFIANCE       PTSUNNY   81  52  36 VRB6G16   29.93S
FINDLAY        MOSUNNY   83  53  35 W14G20    29.92S
TOLEDO EXPRESS SUNNY     80  54  40 W12       29.90S
TOLEDO METCALF MOSUNNY   82  51  34 W17       29.90S
LIMA           SUNNY     80  54  40 W12G17    29.95S

$$
AND FOR LAKE MICHIGAN COASTAL AND OPEN LAKE BUOY OBSERVATIONS

STATION/POSITION TEMP    WIND        PRES    VSBY  WAVE
                 AIR SEA DIR/SP/G                  HT/PER
                 (F)     (DEG/KT/KT) (MB)    (MI)  (FT/S)
CALUMET HARBOR    84     220/ 10/ 17   N/A
MICHIGAN CITY     77      20/  5/  6   N/A
BURNS HARBOR      82     280/  4/  6 1013.2F
SAINT JOSEPH      83     200/  2/  3 1013.9F
4 MI NW BRIDGMAN  77 75  140/  2/  2   N/A           1/ 4
MICHIGAN CITY     78 76   70/  4/  6   N/A           1/ 4

$$
&&


USA.gov is the U.S. government's official web portal to all federal, state and local government web resources and services.